Location: Arrington
(35.8681°N, 86.7092°W)
Time: 05:04:58
(UTC+00:00)

STARLINK 1068 - Pass Details

Date: 23 November 2019
Orbit: 348 x 351 km, 53.0° (Epoch: 13 December)

Event Time Altitude Azimuth Distance (km) Brightness Sun altitude
Exits shadow 11:28:12 16° 241° (WSW) 1,013 4.6 -12.7°
Maximum altitude 11:30:20 57° 318° (NW) 418 2.7 -12.3°
Drops below altitude 10° 11:33:13 10° 38° (NE) 1,315 5.8 -11.7°
Sets 11:35:16 0° 43° (NE) 2,161 7.0 -11.3°
